Retour au catalogue

CZ-6A DEB

ActifSSO
NORAD 56594·DEBRIS·🇨🇳 China

Lancé Nov 11, 2022 depuis Taiyuan Satellite Launch Center

Loading…

Prochains Passages (prochaines 24 heures)

TLE

FraisSource: Space-Track

Époque: Sep 13, 2026, 10:49 UTC

1 56594U 22151ADS 26256.45076679  .00000136  00000-0  92691-4 0  9996
2 56594  98.8046 261.0798 0028198  14.8916 345.3082 14.14835749179970

Suivez CZ-6A DEB en temps réel avec AllMySat

Download on the App Store